Weather History for Bryce Canyon, UT

Change the Weather History Date:

Sunday, December 9, 2012

  Actual Average Record
Temperature  
Mean Temperature 19 °F -  
Max Temperature 28 °F 38 °F 55 °F (1977)
Min Temperature 10 °F 10 °F -18 °F (2013)
Degree Days  
Heating Degree Days 46    
Moisture  
Dew Point 11 °F    
Average Humidity 71    
Maximum Humidity 93    
Minimum Humidity 50    
Precipitation  
Precipitation 0.00 in - - ()
Sea Level Pressure  
Sea Level Pressure 30.06 in    
Wind  
Wind Speed 13 mph (NNW)    
Max Wind Speed 22 mph    
Max Gust Speed 31 mph    
Visibility 8 miles    
Events Snow    
Averages and records for this station are not official NWS values.
T = Trace of Precipitation, MM = Missing Value Source: NWS Daily Summary

Daily Weather History Graph

Daily Weather History Graph

Search for Another Location

Airport:

Trip Planner

Search our weather history database for the weather conditions in past years. The results will help you decide how hot, cold, wet, or windy it might be!

Date:

Astronomy

Dec. 09, 2012 Rise Set
Actual Time 7:32 AM MST 5:09 PM MST
Civil Twilight 7:03 AM MST 5:39 PM MST
Nautical Twilight 6:30 AM MST 6:11 PM MST
Astronomical Twilight 5:58 AM MST 6:43 PM MST
Moon 3:13 AM MST (12/9) 2:16 PM MST (12/9)
Length of Visible Light 10h 35m
Length of Day
9h 37m
Waning Crescent, 18% of the Moon is Illuminated
Dec 9
Waning Crescent
Dec 13
New
Dec 19
First Quarter
Dec 28
Full
Jan 4
Last Quarter

Hourly Weather History & Observations

Time (MST) Temp. Windchill Dew Point Humidity Pressure Visibility Wind Dir Wind Speed Gust Speed Precip Events Conditions
12:53 AM 28.0 °F 16.1 °F 16.0 °F 61% 29.80 in 10.0 mi NW 16.1 mph 23.0 mph N/A   Clear
1:53 AM 26.1 °F 16.2 °F 16.0 °F 66% 29.81 in 10.0 mi NW 10.4 mph 20.7 mph N/A   Clear
2:53 AM 24.1 °F 10.6 °F 15.1 °F 69% 29.82 in 10.0 mi NNW 17.3 mph 25.3 mph N/A   Clear
3:53 AM 24.1 °F 12.5 °F 15.1 °F 69% 29.78 in 10.0 mi WNW 12.7 mph 23.0 mph N/A   Clear
4:53 AM 24.1 °F 10.6 °F 15.1 °F 69% 29.84 in 10.0 mi North 17.3 mph 24.2 mph N/A   Clear
5:53 AM 19.9 °F 9.3 °F 15.1 °F 81% 29.89 in 10.0 mi NW 9.2 mph 19.6 mph N/A   Scattered Clouds
6:32 AM 21.2 °F 10.1 °F 15.8 °F 80% 29.98 in 9.0 mi WNW 10.4 mph - 0.00 in Snow Light Snow
6:53 AM 19.9 °F 7.9 °F 15.1 °F 81% 29.93 in 7.0 mi WNW 11.5 mph - 0.00 in Snow Light Snow
7:53 AM 19.0 °F 8.2 °F 15.1 °F 85% 29.97 in 5.0 mi NNE 9.2 mph - 0.00 in Snow Light Snow
8:27 AM 17.6 °F 4.3 °F 15.8 °F 93% 30.04 in 9.0 mi North 12.7 mph 18.4 mph 0.00 in   Overcast
8:53 AM 19.0 °F 6.1 °F 15.1 °F 85% 30.00 in 2.0 mi North 12.7 mph - 0.00 in Snow Light Snow
9:00 AM 19.4 °F 7.9 °F 15.8 °F 86% 30.05 in 1.0 mi North 10.4 mph - 0.00 in Snow Light Snow
9:34 AM 19.4 °F 11.5 °F 15.8 °F 86% 30.06 in 2.0 mi NW 5.8 mph - 0.00 in Snow Light Snow
9:43 AM 19.4 °F 11.5 °F 15.8 °F 86% 30.06 in 4.0 mi NW 5.8 mph - 0.00 in Snow Light Snow
9:53 AM 19.9 °F 9.3 °F 15.1 °F 81% 30.03 in 6.0 mi WNW 9.2 mph - 0.00 in Snow Light Snow
10:12 AM 21.2 °F 8.9 °F 14.0 °F 74% 30.08 in 9.0 mi NW 12.7 mph 17.3 mph 0.00 in   Overcast
10:51 AM 21.2 °F 9.5 °F 15.8 °F 80% 30.10 in 9.0 mi NNW 11.5 mph - 0.00 in Snow Light Snow
10:53 AM 21.9 °F 11.7 °F 15.1 °F 75% 30.06 in 9.0 mi NW 9.2 mph - 0.00 in Snow Light Snow
11:16 AM 21.2 °F 8.9 °F 14.0 °F 74% 30.09 in 9.0 mi WNW 12.7 mph 21.9 mph 0.00 in   Overcast
11:39 AM 23.0 °F 13.9 °F 12.2 °F 63% 30.09 in 10.0 mi North 8.1 mph 19.6 mph 0.00 in   Overcast
11:53 AM 21.9 °F 8.7 °F 12.0 °F 66% 30.06 in 10.0 mi North 15.0 mph 24.2 mph 0.00 in   Overcast
12:07 PM 24.8 °F 12.4 °F 14.0 °F 64% 30.09 in 7.0 mi NW 15.0 mph - 0.00 in Snow Light Snow
12:53 PM 25.0 °F 11.3 °F 10.0 °F 53% 30.04 in 9.0 mi NW 18.4 mph 28.8 mph 0.00 in Snow Light Snow
1:53 PM 23.0 °F 10.1 °F 9.0 °F 55% 30.08 in 10.0 mi NNW 15.0 mph 31.1 mph 0.00 in   Overcast
2:53 PM 21.0 °F 5.0 °F 6.1 °F 53% 30.11 in 10.0 mi NW 21.9 mph 27.6 mph N/A   Mostly Cloudy
3:53 PM 19.9 °F 6.7 °F 3.9 °F 50% 30.15 in 10.0 mi NNW 13.8 mph 23.0 mph N/A   Mostly Cloudy
4:53 PM 19.0 °F 5.6 °F 3.9 °F 52% 30.17 in 10.0 mi NW 13.8 mph - N/A   Clear
5:53 PM 15.1 °F 3.3 °F 3.9 °F 61% 30.24 in 10.0 mi NNW 9.2 mph - N/A   Clear
6:53 PM 12.0 °F 2.7 °F 1.9 °F 64% 30.27 in 10.0 mi NNW 5.8 mph - N/A   Clear
7:53 PM 14.0 °F 1.2 °F 3.9 °F 64% 30.28 in 10.0 mi NNW 10.4 mph - N/A   Clear
8:53 PM 12.0 °F 0.5 °F 3.9 °F 70% 30.30 in 10.0 mi NW 8.1 mph - N/A   Clear
9:53 PM 10.9 °F -0.8 °F 3.9 °F 73% 30.30 in 10.0 mi NNW 8.1 mph - N/A   Clear
10:53 PM 12.0 °F -1.3 °F 3.0 °F 67% 30.29 in 10.0 mi NNW 10.4 mph - N/A   Clear
11:53 PM 12.9 °F -1.6 °F 3.0 °F 65% 30.27 in 10.0 mi NNW 12.7 mph - N/A   Clear